OBJECT AU, 57208

Orbit data source: Space-Track

You're viewing an Uncataloged Satellite

Recently launched and/or uncataloged satellites may have evolving metadata. Metadata may include but not limited to: Owner, Maufacturer, Bus, Motor, and Mission.

OBJECT AU, 57208 is a satellite in SSO that was launched on Tue, 27 Jun 2023 UTC via a SOYUZ-2-1B launch vehicle from the Vostochny Cosmodrome (VOSTO). Unknown objects in Earth's orbit typically refer to objects detected orbiting the Earth but have not yet been identified or cataloged. These objects could be anything from previously untracked satellites, spent rocket stages, debris from satellite collisions, or even natural meteoroids temporarily captured by Earth's gravity.

Loading next visibility...
Identifier
57208, 2023-091AU
Orbit
SSO
Country
Flag of TBDTBD
Related business
Manufacturer
Sputniks
Mission
Operational Commercial Communications
Bus & Motor
CUBESAT 3U?, Unknown motor
Mass
3 kg wet, 3 kg dry
Launch date (UTC)
2023-06-27 (3 years ago)
Launch vehicle
SOYUZ-2-1B
Launch site
Vostochny Cosmodrome (VOSTO)
Object type
Unknown
Shape & HBR
Box, 0.1 m
Radar Cross Section
0.035 m², Medium (>0.1 m² and < 1m²)

Expand to show TLE details & history
Last TLE update: 5 hours ago

TLE from 5 hours ago
0 OBJECT AU
1 57208U 23091AU  26162.94721610  .00018309  00000-0  48098-3 0  9997
2 57208  97.5099 233.8057 0007533  90.8154 269.3954 15.38638919163984
Epoch: 2026-06-11T22:43Z
TLE epoch observation values (Epoch: 2026-06-11T22:43:59.471Z)
Latitude
-0°
Longitude
-7.4758°
Altitude
453.304 km
Speed
7.64 km/s
True Right ascension
15h 35m 13s
True Declination
0° 00' 00"
Sunlit
Object was in full shadow at epoch
Visualization orbit readout
Latitude
Unknown
Longitude
Unknown
Altitude
Unknown
Speed
Unknown
Apparent Right ascension
Unknown
Apparent Declination
Unknown
Sunlit
N/A
Visualization observer readout
Local Sidereal Time
14:27:47
Azimuth
Unknown
Elevation
Unknown
Doppler factor
Unknown
Orbital elements
Apogee altitude
452.22 km
Perigee altitude
441.937 km
Semi-major axis
6,825.216 km
Eccentricity
0.00075
Inclination
97.5099°
RAAN
233.8057°
Arg. of periapsis
90.8154°
True anomaly
269.30908°
Mean anomaly
269.3954°
Eccentric anomaly
269.35224°
Mean motion
3.84918 °/min
Orbital period
93.53 mins
BSTAR
0.00048098
Loading maneuver chart data...
Computing Atmospheric mass density...
Loading historical data...
Loading historical data...
Loading historical data...
Loading historical data...
Loading historical data...
Loading historical data...
Loading historical data...

Documentation

Showing up to 5 results
|